Regional Weather Roundup
Issued by NWS

Home | Current Version | Previous Version | Text Only | Print | Product List | Glossary On
Versions: 1 2 3 4 5 6 7 8 9 10 11 12 13 14 15 16 17 18 19 20 21 22 23 24 25 26 27 28 29 30 31 32 33 34 35 36 37 38 39 40 41 42 43 44 45 46 47 48 49 50
000
ASUS44 KBMX 211110
RWRAL

ALABAMA REGIONAL WEATHER ROUNDUP
NATIONAL WEATHER SERVICE BIRMINGHAM AL
600 AM CDT SAT OCT 21 2017

NOTE: "FAIR" INDICATES FEW OR NO CLOUDS BELOW 12,000 FEET
WITH NO SIGNIFICANT WEATHER AND/OR OBSTRUCTIONS TO VISIBILITY.

THE REMARK "TC" DENOTES TEMPERATURE IN DEGREES CELSIUS.

ALZ001>011-014-016>018-020-211200-
NORTH ALABAMA

CITY           SKY/WX    TMP DP  RH WIND       PRES   REMARKS
MUSCLE SHOALS  CLOUDY    50  45  83 CALM      30.20R
HUNTSVILLE     PTCLDY    55  51  86 E9        30.19R
DECATUR        PTCLDY    49  49 100 CALM      30.20R
HALEYVILLE     FAIR      58  49  72 SE5       30.20R
GADSDEN        CLOUDY    46  46 100 CALM      30.23R
$$

ALZ012-013-022-023-030>036-040>044-211200-
WEST CENTRAL ALABAMA

CITY           SKY/WX    TMP DP  RH WIND       PRES   REMARKS
TUSCALOOSA     PTCLDY    54  53  97 CALM      30.17R
DEMOPOLIS        N/A     59  52  79 CALM      30.14R
$$

ALZ015-024>026-033>036-041>044-211200-
CENTRAL ALABAMA

CITY           SKY/WX    TMP DP  RH WIND       PRES   REMARKS
BIRMINGHAM     PTCLDY    60  47  61 VRB5      30.21R
MONTGOMERY     CLEAR     57  49  74 E3        30.17R
SHELBY CO ARPT CLEAR     56  52  86 CALM      30.19R
MAXWELL AFB    CLEAR     58  52  80 NE3       30.16R
GREENVILLE     FAIR      63  57  81 SE5       30.15R
SELMA          FAIR      57  52  82 CALM      30.16R
PRATTVILLE     FAIR      58  51  80 CALM      30.17R
BESSEMER       FAIR      59  50  72 SE6       30.20R
TALLADEGA      FAIR      50  49  96 CALM      30.22R
PELL CITY      SUNNY     50  50 100 CALM      30.22R
MARION         NOT AVBL
SYLACAUGA      FAIR      55  55  99 CALM      30.20R
$$

ALZ019-021-028-029-037-038-045>048-211200-
EAST CENTRAL ALABAMA

CITY           SKY/WX    TMP DP  RH WIND       PRES   REMARKS
ANNISTON       MOCLDY    54  48  80 NE8       30.22R
ALEXANDER CITY PTCLDY    54  51  90 CALM      30.20S
AUBURN         PTCLDY    59  55  87 E8        30.23R
$$

ALZ051>064-211200-
SOUTHWEST ALABAMA

CITY           SKY/WX    TMP DP  RH WIND       PRES   REMARKS
MOBILE         MOCLDY    66  61  84 E7        30.09R
BROOKLEY FIELD CLOUDY    71  67  87 E12       30.10R
EVERGREEN      CLEAR     56  54  93 CALM      30.15R
$$

ALZ049-050-065>069-211200-
SOUTHEAST ALABAMA

CITY           SKY/WX    TMP DP  RH WIND       PRES   REMARKS
DOTHAN         PTCLDY    63  62  97 E6        30.21R
OZARK          CLOUDY    61  58  90 NE6       30.17R
TROY           PTCLDY    60  58  92 NE3       30.18R
EUFAULA        FAIR      58  57  97 CALM      30.19R
$$



USA.gov is the U.S. government's official web portal to all federal, state and local government web resources and services.